Time,TemperatureF,DewpointF,PressureIn,WindDirection,WindDirectionDegrees,WindSpeedMPH,WindSpeedGustMPH,Humidity,HourlyPrecipIn,Conditions,Clouds,dailyrainin,SoftwareType,DateUTC
2013-02-27 00:01:00,36.1,34.0,29.38,SW,215,1.0,-999.0,93,-99.99,,,1.11,weatherlink.com 1.10,2013-02-27 05:01:00,
2013-02-27 00:16:00,36.2,34.0,29.39,SW,215,2.0,-999.0,93,-99.99,,,0.01,weatherlink.com 1.10,2013-02-27 05:16:00,
2013-02-27 00:31:00,36.4,35.0,29.39,SW,215,0.0,-999.0,93,-99.99,,,0.01,weatherlink.com 1.10,2013-02-27 05:31:00,
2013-02-27 00:46:00,36.5,35.0,29.40,SW,225,5.0,-999.0,93,-99.99,,,0.02,weatherlink.com 1.10,2013-02-27 05:46:00,
2013-02-27 01:01:00,36.7,35.0,29.41,SW,227,3.0,-999.0,93,-99.99,,,0.03,weatherlink.com 1.10,2013-02-27 06:01:00,
2013-02-27 01:16:00,36.6,35.0,29.41,SW,221,5.0,-999.0,93,-99.99,,,0.04,weatherlink.com 1.10,2013-02-27 06:16:00,
2013-02-27 01:31:00,36.7,35.0,29.41,SW,219,4.0,-999.0,93,-99.99,,,0.06,weatherlink.com 1.10,2013-02-27 06:31:00,
2013-02-27 01:46:00,37.0,35.0,29.41,SW,216,6.0,-999.0,93,-99.99,,,0.07,weatherlink.com 1.10,2013-02-27 06:46:00,
2013-02-27 02:01:00,37.1,35.0,29.42,SW,232,4.0,-999.0,93,-99.99,,,0.08,weatherlink.com 1.10,2013-02-27 07:01:00,
2013-02-27 02:16:00,37.0,35.0,29.42,SW,228,3.0,-999.0,93,-99.99,,,0.09,weatherlink.com 1.10,2013-02-27 07:16:00,
2013-02-27 02:31:00,37.0,35.0,29.42,SW,218,3.0,-999.0,93,-99.99,,,0.11,weatherlink.com 1.10,2013-02-27 07:31:00,
2013-02-27 02:46:00,36.9,35.0,29.42,SW,215,4.0,-999.0,93,-99.99,,,0.13,weatherlink.com 1.10,2013-02-27 07:46:00,
2013-02-27 03:01:00,36.6,35.0,29.43,SW,219,2.0,-999.0,93,-99.99,,,0.14,weatherlink.com 1.10,2013-02-27 08:01:00,
2013-02-27 03:16:00,36.6,35.0,29.42,SW,220,5.0,-999.0,93,-99.99,,,0.15,weatherlink.com 1.10,2013-02-27 08:16:00,
2013-02-27 03:31:00,36.7,35.0,29.42,SW,223,3.0,-999.0,93,-99.99,,,0.17,weatherlink.com 1.10,2013-02-27 08:31:00,
2013-02-27 03:46:00,37.0,35.0,29.42,WSW,242,3.0,-999.0,93,-99.99,,,0.18,weatherlink.com 1.10,2013-02-27 08:46:00,
2013-02-27 04:01:00,37.2,36.0,29.42,SW,218,5.0,-999.0,94,-99.99,,,0.18,weatherlink.com 1.10,2013-02-27 09:01:00,
2013-02-27 04:16:00,37.2,36.0,29.42,SW,226,6.0,-999.0,94,-99.99,,,0.18,weatherlink.com 1.10,2013-02-27 09:16:00,
2013-02-27 04:31:00,37.3,36.0,29.43,SW,225,6.0,-999.0,94,-99.99,,,0.19,weatherlink.com 1.10,2013-02-27 09:31:00,
2013-02-27 04:46:00,37.3,36.0,29.43,SW,225,3.0,-999.0,94,-99.99,,,0.19,weatherlink.com 1.10,2013-02-27 09:46:00,
2013-02-27 05:01:00,37.3,36.0,29.43,SW,223,7.0,-999.0,94,-99.99,,,0.20,weatherlink.com 1.10,2013-02-27 10:01:00,
2013-02-27 05:16:00,37.4,36.0,29.44,SW,224,6.0,-999.0,94,-99.99,,,0.20,weatherlink.com 1.10,2013-02-27 10:16:00,
2013-02-27 05:31:00,37.4,36.0,29.44,SW,221,5.0,-999.0,94,-99.99,,,0.20,weatherlink.com 1.10,2013-02-27 10:31:00,
2013-02-27 05:46:00,37.4,36.0,29.44,WSW,237,3.0,-999.0,94,-99.99,,,0.20,weatherlink.com 1.10,2013-02-27 10:46:00,
2013-02-27 06:01:00,37.1,36.0,29.44,SW,218,2.0,-999.0,94,-99.99,,,0.21,weatherlink.com 1.10,2013-02-27 11:01:00,
2013-02-27 06:16:00,37.1,36.0,29.44,SW,220,4.0,-999.0,94,-99.99,,,0.21,weatherlink.com 1.10,2013-02-27 11:16:00,
2013-02-27 06:31:00,37.0,36.0,29.45,SW,223,0.0,-999.0,94,-99.99,,,0.21,weatherlink.com 1.10,2013-02-27 11:31:00,
2013-02-27 06:46:00,37.0,36.0,29.45,SSW,210,3.0,-999.0,94,-99.99,,,0.22,weatherlink.com 1.10,2013-02-27 11:46:00,
2013-02-27 07:01:00,37.9,36.0,29.45,SW,227,13.0,-999.0,94,-99.99,,,0.22,weatherlink.com 1.10,2013-02-27 12:01:00,
2013-02-27 07:16:00,38.4,37.0,29.46,SSW,213,7.0,-999.0,94,-99.99,,,0.23,weatherlink.com 1.10,2013-02-27 12:16:00,
2013-02-27 07:31:00,38.4,37.0,29.46,SW,221,15.0,-999.0,94,-99.99,,,0.24,weatherlink.com 1.10,2013-02-27 12:31:00,
2013-02-27 07:46:00,37.2,36.0,29.48,SW,233,3.0,-999.0,94,-99.99,,,0.25,weatherlink.com 1.10,2013-02-27 12:46:00,
2013-02-27 08:01:00,37.0,36.0,29.49,SW,225,4.0,-999.0,94,-99.99,,,0.25,weatherlink.com 1.10,2013-02-27 13:01:00,
2013-02-27 08:16:00,36.5,35.0,29.50,WSW,254,11.0,-999.0,94,-99.99,,,0.26,weatherlink.com 1.10,2013-02-27 13:16:00,
2013-02-27 08:31:00,36.0,35.0,29.51,SW,217,5.0,-999.0,94,-99.99,,,0.26,weatherlink.com 1.10,2013-02-27 13:31:00,
2013-02-27 08:46:00,35.8,34.0,29.51,WSW,242,4.0,-999.0,94,-99.99,,,0.27,weatherlink.com 1.10,2013-02-27 13:46:00,
2013-02-27 09:01:00,35.6,34.0,29.52,SW,230,7.0,-999.0,94,-99.99,,,0.28,weatherlink.com 1.10,2013-02-27 14:01:00,
2013-02-27 09:16:00,35.5,34.0,29.52,SW,221,11.0,-999.0,94,-99.99,,,0.28,weatherlink.com 1.10,2013-02-27 14:16:00,
2013-02-27 09:31:00,35.2,33.0,29.52,SW,228,9.0,-999.0,93,-99.99,,,0.28,weatherlink.com 1.10,2013-02-27 14:31:00,
2013-02-27 09:46:00,35.1,33.0,29.53,SW,219,9.0,-999.0,93,-99.99,,,0.28,weatherlink.com 1.10,2013-02-27 14:46:00,
2013-02-27 10:01:00,34.9,33.0,29.53,SSW,213,5.0,-999.0,93,-99.99,,,0.29,weatherlink.com 1.10,2013-02-27 15:01:00,
2013-02-27 10:16:00,34.9,33.0,29.53,SW,223,4.0,-999.0,93,-99.99,,,0.29,weatherlink.com 1.10,2013-02-27 15:16:00,
2013-02-27 10:31:00,35.5,34.0,29.53,SW,224,7.0,-999.0,93,-99.99,,,0.29,weatherlink.com 1.10,2013-02-27 15:31:00,
2013-02-27 10:46:00,36.0,34.0,29.53,SW,236,12.0,-999.0,93,-99.99,,,0.29,weatherlink.com 1.10,2013-02-27 15:46:00,
2013-02-27 11:01:00,36.1,34.0,29.53,SW,217,13.0,-999.0,93,-99.99,,,0.29,weatherlink.com 1.10,2013-02-27 16:01:00,
2013-02-27 11:16:00,36.0,34.0,29.53,SW,231,14.0,-999.0,93,-99.99,,,0.29,weatherlink.com 1.10,2013-02-27 16:16:00,
2013-02-27 11:31:00,36.0,34.0,29.54,SW,225,11.0,-999.0,93,-99.99,,,0.30,weatherlink.com 1.10,2013-02-27 16:31:00,
2013-02-27 11:46:00,35.9,34.0,29.54,WSW,240,7.0,-999.0,93,-99.99,,,0.30,weatherlink.com 1.10,2013-02-27 16:46:00,
2013-02-27 12:01:00,35.5,34.0,29.54,SSW,213,6.0,-999.0,93,-99.99,,,0.30,weatherlink.com 1.10,2013-02-27 17:01:00,
2013-02-27 12:16:00,35.6,34.0,29.54,SW,219,5.0,-999.0,92,-99.99,,,0.30,weatherlink.com 1.10,2013-02-27 17:16:00,
2013-02-27 12:31:00,35.9,34.0,29.54,SW,215,7.0,-999.0,92,-99.99,,,0.30,weatherlink.com 1.10,2013-02-27 17:31:00,
2013-02-27 12:46:00,35.9,34.0,29.53,SW,217,10.0,-999.0,92,-99.99,,,0.30,weatherlink.com 1.10,2013-02-27 17:46:00,
2013-02-27 13:01:00,35.8,34.0,29.53,SW,219,7.0,-999.0,92,-99.99,,,0.30,weatherlink.com 1.10,2013-02-27 18:01:00,
2013-02-27 13:16:00,36.0,34.0,29.53,SW,216,17.0,-999.0,92,-99.99,,,0.30,weatherlink.com 1.10,2013-02-27 18:16:00,
2013-02-27 13:31:00,35.7,34.0,29.53,SW,215,9.0,-999.0,92,-99.99,,,0.30,weatherlink.com 1.10,2013-02-27 18:31:00,
2013-02-27 13:46:00,35.2,33.0,29.53,SW,219,5.0,-999.0,91,-99.99,,,0.31,weatherlink.com 1.10,2013-02-27 18:46:00,
2013-02-27 14:01:00,35.0,33.0,29.54,SW,219,7.0,-999.0,92,-99.99,,,0.31,weatherlink.com 1.10,2013-02-27 19:01:00,
2013-02-27 14:16:00,34.9,33.0,29.53,SSW,198,8.0,-999.0,92,-99.99,,,0.31,weatherlink.com 1.10,2013-02-27 19:16:00,
2013-02-27 14:31:00,35.0,33.0,29.53,SW,236,13.0,-999.0,92,-99.99,,,0.31,weatherlink.com 1.10,2013-02-27 19:31:00,
2013-02-27 14:46:00,35.3,33.0,29.53,SSW,200,10.0,-999.0,91,-99.99,,,0.31,weatherlink.com 1.10,2013-02-27 19:46:00,
2013-02-27 15:01:00,35.5,33.0,29.53,WSW,242,4.0,-999.0,91,-99.99,,,0.31,weatherlink.com 1.10,2013-02-27 20:01:00,
2013-02-27 15:16:00,35.5,33.0,29.54,SW,219,6.0,-999.0,91,-99.99,,,0.31,weatherlink.com 1.10,2013-02-27 20:16:00,
2013-02-27 15:31:00,35.4,33.0,29.54,SW,232,5.0,-999.0,91,-99.99,,,0.31,weatherlink.com 1.10,2013-02-27 20:31:00,
2013-02-27 15:46:00,35.3,33.0,29.54,WSW,237,11.0,-999.0,91,-99.99,,,0.31,weatherlink.com 1.10,2013-02-27 20:46:00,
2013-02-27 16:01:00,35.3,33.0,29.54,WSW,242,12.0,-999.0,91,-99.99,,,0.31,weatherlink.com 1.10,2013-02-27 21:01:00,
2013-02-27 16:16:00,35.2,33.0,29.55,WSW,248,12.0,-999.0,90,-99.99,,,0.31,weatherlink.com 1.10,2013-02-27 21:16:00,
2013-02-27 16:31:00,35.2,33.0,29.55,SW,222,10.0,-999.0,90,-99.99,,,0.31,weatherlink.com 1.10,2013-02-27 21:31:00,
2013-02-27 16:46:00,35.0,32.0,29.55,SW,228,6.0,-999.0,90,-99.99,,,0.31,weatherlink.com 1.10,2013-02-27 21:46:00,
2013-02-27 17:01:00,34.6,32.0,29.55,SSW,207,10.0,-999.0,90,-99.99,,,0.31,weatherlink.com 1.10,2013-02-27 22:01:00,
2013-02-27 17:16:00,34.5,32.0,29.55,SSW,208,4.0,-999.0,90,-99.99,,,0.31,weatherlink.com 1.10,2013-02-27 22:16:00,
2013-02-27 17:31:00,34.3,32.0,29.56,SW,227,5.0,-999.0,90,-99.99,,,0.31,weatherlink.com 1.10,2013-02-27 22:31:00,
2013-02-27 17:46:00,33.9,31.0,29.56,WSW,238,5.0,-999.0,90,-99.99,,,0.31,weatherlink.com 1.10,2013-02-27 22:46:00,
2013-02-27 18:01:00,33.7,31.0,29.57,SW,221,5.0,-999.0,91,-99.99,,,0.31,weatherlink.com 1.10,2013-02-27 23:01:00,
2013-02-27 18:16:00,33.5,31.0,29.57,SSW,207,6.0,-999.0,91,-99.99,,,0.31,weatherlink.com 1.10,2013-02-27 23:16:00,
2013-02-27 18:31:00,33.4,31.0,29.57,WSW,244,4.0,-999.0,91,-99.99,,,0.31,weatherlink.com 1.10,2013-02-27 23:31:00,
2013-02-27 18:46:00,33.3,31.0,29.58,WSW,238,9.0,-999.0,91,-99.99,,,0.31,weatherlink.com 1.10,2013-02-27 23:46:00,
2013-02-27 19:01:00,33.2,31.0,29.58,SW,217,6.0,-999.0,91,-99.99,,,0.31,weatherlink.com 1.10,2013-02-28 00:01:00,
2013-02-27 19:16:00,33.1,31.0,29.58,SW,222,5.0,-999.0,91,-99.99,,,0.31,weatherlink.com 1.10,2013-02-28 00:16:00,
2013-02-27 19:31:00,33.1,31.0,29.58,SSW,209,7.0,-999.0,92,-99.99,,,0.31,weatherlink.com 1.10,2013-02-28 00:31:00,
2013-02-27 19:46:00,32.9,31.0,29.59,SSW,211,6.0,-999.0,92,-99.99,,,0.31,weatherlink.com 1.10,2013-02-28 00:46:00,
2013-02-27 20:01:00,32.8,31.0,29.58,SW,225,9.0,-999.0,92,-99.99,,,0.31,weatherlink.com 1.10,2013-02-28 01:01:00,
2013-02-27 20:16:00,32.8,31.0,29.58,SSW,209,5.0,-999.0,92,-99.99,,,0.31,weatherlink.com 1.10,2013-02-28 01:16:00,
2013-02-27 20:31:00,32.6,31.0,29.58,SW,215,6.0,-999.0,92,-99.99,,,0.31,weatherlink.com 1.10,2013-02-28 01:31:00,
2013-02-27 20:46:00,32.5,31.0,29.58,SW,227,6.0,-999.0,92,-99.99,,,0.31,weatherlink.com 1.10,2013-02-28 01:46:00,
2013-02-27 21:01:00,32.5,31.0,29.58,WSW,241,11.0,-999.0,92,-99.99,,,0.31,weatherlink.com 1.10,2013-02-28 02:01:00,
2013-02-27 21:16:00,32.4,30.0,29.58,WSW,239,6.0,-999.0,92,-99.99,,,0.31,weatherlink.com 1.10,2013-02-28 02:16:00,
2013-02-27 21:31:00,32.3,30.0,29.58,SW,225,5.0,-999.0,92,-99.99,,,0.31,weatherlink.com 1.10,2013-02-28 02:31:00,
2013-02-27 21:46:00,32.3,30.0,29.58,SW,227,6.0,-999.0,92,-99.99,,,0.31,weatherlink.com 1.10,2013-02-28 02:46:00,
2013-02-27 22:01:00,32.3,30.0,29.58,SW,219,9.0,-999.0,92,-99.99,,,0.31,weatherlink.com 1.10,2013-02-28 03:01:00,
2013-02-27 22:16:00,32.3,31.0,29.58,SW,218,9.0,-999.0,93,-99.99,,,0.31,weatherlink.com 1.10,2013-02-28 03:16:00,
2013-02-27 22:31:00,32.1,30.0,29.58,SSW,211,7.0,-999.0,93,-99.99,,,0.31,weatherlink.com 1.10,2013-02-28 03:31:00,
2013-02-27 22:46:00,31.7,30.0,29.58,SW,214,10.0,-999.0,93,-99.99,,,0.31,weatherlink.com 1.10,2013-02-28 03:46:00,
2013-02-27 23:01:00,31.6,30.0,29.58,WSW,246,9.0,-999.0,93,-99.99,,,0.31,weatherlink.com 1.10,2013-02-28 04:01:00,
2013-02-27 23:20:00,31.6,30.0,29.57,WSW,244,9.0,-999.0,93,-99.99,,,0.31,weatherlink.com 1.10,2013-02-28 04:20:00,
2013-02-27 23:31:00,31.7,30.0,29.57,SSW,212,7.0,-999.0,93,-99.99,,,0.31,weatherlink.com 1.10,2013-02-28 04:31:00,
2013-02-27 23:46:00,31.7,30.0,29.57,SW,231,4.0,-999.0,93,-99.99,,,0.31,weatherlink.com 1.10,2013-02-28 04:46:00,